STARLINK-30270 (57530 NORAD) Tracking and Keplerian Element Data

This shows tracking and keplerian element data for the satellite.

Feedback or suggestion? Click here.




ElementValue
Catalog57530
NameSTARLINK-30270
Epoch Orbit412
Epoch Day239.16667824
Epoch Year2023
RAAN359.5846
Inclination42.9995
Eccentricity0.0001732
Argument of Perigee286.9102
Mean Anonmoly73.9253
Mean Motion15.5483899
Decay Rate-0.0162217
L11 57530U 23115K 23239.16667824 -.01622170 00000+0 -26350-1 0 9998
L22 57530 42.9995 359.5846 0001732 286.9102 73.9253 15.54838990 4129



Live tracking and technical data element details for STARLINK-30270 (NORAD 57530). STARLINK-30270 can be tracked NOW for your location showing map with azimuth and elevation plus other details from your city location.







IsCatalogInMostPopularTable: catalog: 57530, numindb: 5
Update: records affected: 1



GetName: 57530 STARLINK-30270

Hit Count: updated at: Tue, 26 Sep 2023 13:50:01 GMT